sat.trackr.live / text

‹ back to catalog

GENMAT-1

NORAD 58276 · 2023-174W

PAYLOAD ACTIVE UNKNOWN

§ Identity

Operator
Country
US
Launch date
2023-11-11
Launch site
AFWTR
Launch vehicle
Mass (kg)
RCS (m²)

External: N2YO · Heavens-Above · Gunter

§ Orbital elements

Epoch: 2026-09-21T18:26:25.283616Z

Period
93.74 min
Inclination
97.3613°
Eccentricity
0.0006065
Mean motion
15.36159755 rev/d
Perigee alt
453.3 km
Apogee alt
461.6 km
Semi-major
6,835.6 km
B*
2.0191e-4
RAAN
342.5467°
Arg perigee
184.3413°
Mean anomaly
175.7780°
Rev number
15,979

§ Raw data

GENMAT-11 58276U 23174W   26264.76834819  .00007035  00000+0  20191-3 0  99912 58276  97.3613 342.5467 0006065 184.3413 175.7780 15.36159755159794

JSON: /api/v1/satellites/58276 · /tle

For live sub-satellite position, see the globe view (requires WebGL).

§ Visibility from observer

Set your observer location to see the next 7 days of passes ≥ 10°. The values pass through the URL so the page stays shareable.

No JS? Fill the form by hand. The geolocation button needs JavaScript.

§ Radio — SatNOGS DB

ModeDescriptionDownlinkUplink
GFSK Mode S - Transmitter 2.245 GHz

1 transmitter · refreshed weekly from db.satnogs.org